| time (UTC) | temp F | wind direction | speed knots | gust knots | rain 1hr in | rain 24hr in | rain mn in | humidity % | barometer mb |
| 20260509234332 | 87 | 132 | 3.5 | 5.2 | 0.00 | 0.11 | 0.11 | 44 | 1007.9 |
| 20260509233830 | 87 | 123 | 3.5 | 5.2 | 0.00 | 0.11 | 0.11 | 43 | 1007.9 |
| 20260509233327 | 87 | 107 | 2.6 | 7.0 | 0.00 | 0.11 | 0.11 | 43 | 1008.3 |
| 20260509232822 | 87 | 128 | 6.1 | 7.8 | 0.00 | 0.11 | 0.11 | 44 | 1008.1 |
| 20260509232321 | 88 | 136 | 4.3 | 6.1 | 0.00 | 0.11 | 0.11 | 43 | 1008.1 |
| 20260509231816 | 88 | 98 | 2.6 | 5.2 | 0.00 | 0.11 | 0.11 | 44 | 1008.0 |
| 20260509231314 | 88 | 92 | 2.6 | 8.7 | 0.00 | 0.11 | 0.11 | 44 | 1008.0 |
| 20260509230812 | 88 | 89 | 3.5 | 5.2 | 0.00 | 0.11 | 0.11 | 45 | 1008.1 |
| 20260509230308 | 88 | 89 | 4.3 | 7.8 | 0.00 | 0.11 | 0.11 | 45 | 1008.3 |
| 20260509225803 | 88 | 105 | 3.5 | 5.2 | 0.00 | 0.11 | 0.11 | 44 | 1008.3 |
| 20260509225300 | 88 | 106 | 3.5 | 5.2 | 0.00 | 0.11 | 0.11 | 44 | 1008.1 |
| 20260509224756 | 88 | 88 | 4.3 | 5.2 | 0.00 | 0.11 | 0.11 | 42 | 1008.3 |
| 20260509224253 | 89 | 80 | 4.3 | 4.3 | 0.00 | 0.11 | 0.11 | 39 | 1008.1 |
| 20260509223749 | 90 | 71 | 2.6 | 5.2 | 0.00 | 0.11 | 0.11 | 38 | 1008.0 |
| 20260509223246 | 89 | 162 | 0.0 | 1.7 | 0.00 | 0.11 | 0.11 | 38 | 1008.1 |
| 20260509222743 | 89 | 111 | 3.5 | 7.0 | 0.00 | 0.11 | 0.11 | 40 | 1008.3 |
| 20260509222239 | 90 | 224 | 1.7 | 3.5 | 0.00 | 0.11 | 0.11 | 39 | 1008.3 |
| 20260509221734 | 89 | 170 | 1.7 | 4.3 | 0.00 | 0.11 | 0.11 | 39 | 1008.3 |
| 20260509221231 | 90 | 187 | 1.7 | 3.5 | 0.00 | 0.11 | 0.11 | 39 | 1008.5 |
| 20260509220727 | 90 | 142 | 2.6 | 5.2 | 0.00 | 0.11 | 0.11 | 39 | 1008.4 |
| 20260509220223 | 89 | 178 | 0.9 | 3.5 | 0.00 | 0.11 | 0.11 | 42 | 1008.3 |
| 20260509215719 | 90 | 116 | 4.3 | 4.3 | 0.00 | 0.11 | 0.11 | 41 | 1008.4 |
| 20260509215215 | 89 | 154 | 0.0 | 2.6 | 0.00 | 0.11 | 0.11 | 39 | 1008.5 |
| 20260509214713 | 89 | 119 | 1.7 | 3.5 | 0.00 | 0.11 | 0.11 | 39 | 1008.4 |
| 20260509214210 | 89 | 78 | 2.6 | 3.5 | 0.00 | 0.11 | 0.11 | 39 | 1008.5 |
| 20260509213707 | 91 | 83 | 3.5 | 5.2 | 0.00 | 0.11 | 0.11 | 38 | 1008.5 |
| 20260509213202 | 91 | 79 | 0.9 | 2.6 | 0.00 | 0.11 | 0.11 | 37 | 1008.4 |
| 20260509212700 | 90 | 20 | 1.7 | 3.5 | 0.00 | 0.11 | 0.11 | 41 | 1008.5 |
| 20260509212157 | 90 | 127 | 0.9 | 3.5 | 0.00 | 0.11 | 0.11 | 42 | 1008.8 |
| 20260509211653 | 90 | 130 | 0.0 | 1.7 | 0.00 | 0.11 | 0.11 | 39 | 1008.7 |
| 20260509211149 | 88 | 264 | 1.7 | 2.6 | 0.00 | 0.11 | 0.11 | 39 | 1008.8 |
| 20260509210647 | 88 | 170 | 4.3 | 8.7 | 0.00 | 0.11 | 0.11 | 39 | 1008.6 |
| 20260509210144 | 88 | 80 | 1.7 | 2.6 | 0.00 | 0.11 | 0.11 | 43 | 1009.1 |
| 20260509205639 | 88 | 132 | 2.6 | 3.5 | 0.00 | 0.11 | 0.11 | 41 | 1009.0 |
| 20260509205138 | 87 | 92 | 1.7 | 5.2 | 0.00 | 0.11 | 0.11 | 41 | 1009.0 |
| 20260509204635 | 88 | 104 | 1.7 | 4.3 | 0.00 | 0.11 | 0.11 | 41 | 1009.0 |
| 20260509204131 | 88 | 89 | 3.5 | 6.1 | 0.00 | 0.11 | 0.11 | 41 | 1009.2 |
| 20260509203627 | 89 | 78 | 4.3 | 4.3 | 0.00 | 0.11 | 0.11 | 41 | 1009.1 |
| 20260509203126 | 88 | 13 | 1.7 | 4.3 | 0.00 | 0.11 | 0.11 | 43 | 1009.2 |
| 20260509202626 | 88 | 69 | 1.7 | 5.2 | 0.00 | 0.11 | 0.11 | 42 | 1009.4 |
| 20260509202121 | 89 | 51 | 1.7 | 3.5 | 0.00 | 0.11 | 0.11 | 42 | 1009.6 |
| 20260509201616 | 88 | 123 | 0.9 | 3.5 | 0.00 | 0.11 | 0.11 | 44 | 1009.4 |
| 20260509201114 | 88 | 93 | 3.5 | 5.2 | 0.00 | 0.11 | 0.11 | 42 | 1009.6 |
| 20260509200609 | 87 | 88 | 1.7 | 3.5 | 0.00 | 0.11 | 0.11 | 43 | 1009.5 |
| 20260509200105 | 87 | 115 | 4.3 | 4.3 | 0.00 | 0.11 | 0.11 | 44 | 1009.6 |
| 20260509195601 | 88 | 48 | 0.9 | 3.5 | 0.00 | 0.11 | 0.11 | 43 | 1009.7 |
| 20260509195055 | 87 | 235 | 1.7 | 2.6 | 0.00 | 0.11 | 0.11 | 46 | 1009.7 |
| 20260509194555 | 87 | 352 | 1.7 | 3.5 | 0.00 | 0.11 | 0.11 | 45 | 1009.7 |
| 20260509194053 | 87 | 62 | 1.7 | 2.6 | 0.00 | 0.11 | 0.11 | 46 | 1009.9 |
| 20260509193548 | 86 | 148 | 0.0 | 4.3 | 0.00 | 0.11 | 0.11 | 45 | 1010.0 |
| 20260509193045 | 89 | 124 | 3.5 | 5.2 | 0.00 | 0.11 | 0.11 | 43 | 1010.1 |
| 20260509192542 | 87 | 82 | 0.9 | 3.5 | 0.00 | 0.11 | 0.11 | 45 | 1010.0 |
| 20260509192036 | 86 | 110 | 1.7 | 4.3 | 0.00 | 0.11 | 0.11 | 43 | 1010.1 |
| 20260509191531 | 86 | 156 | 2.6 | 4.3 | 0.00 | 0.11 | 0.11 | 47 | 1009.9 |
| 20260509191027 | 87 | 132 | 4.3 | 7.0 | 0.00 | 0.11 | 0.11 | 45 | 1010.2 |
| 20260509190524 | 87 | 128 | 0.9 | 2.6 | 0.00 | 0.11 | 0.11 | 45 | 1010.1 |
| 20260509190022 | 87 | 195 | 0.0 | 3.5 | 0.00 | 0.11 | 0.11 | 45 | 1010.3 |
| 20260509185519 | 87 | 204 | 0.0 | 1.7 | 0.00 | 0.11 | 0.11 | 44 | 1010.2 |
| 20260509185015 | 87 | 114 | 1.7 | 3.5 | 0.00 | 0.11 | 0.11 | 42 | 1010.2 |
| 20260509184514 | 86 | 162 | 0.0 | 1.7 | 0.00 | 0.11 | 0.11 | 49 | 1010.2 |
| 20260509184010 | 86 | 329 | 1.7 | 4.3 | 0.00 | 0.11 | 0.11 | 46 | 1010.4 |
| 20260509183505 | 86 | 99 | 1.7 | 4.3 | 0.00 | 0.11 | 0.11 | 44 | 1010.4 |
| 20260509183001 | 86 | 21 | 0.9 | 3.5 | 0.00 | 0.11 | 0.11 | 49 | 1010.6 |
| 20260509182458 | 85 | 57 | 1.7 | 4.3 | 0.00 | 0.11 | 0.11 | 51 | 1010.5 |
| 20260509181954 | 85 | 336 | 1.7 | 2.6 | 0.00 | 0.11 | 0.11 | 46 | 1010.7 |
| 20260509181453 | 84 | 249 | 3.5 | 5.2 | 0.00 | 0.11 | 0.11 | 48 | 1010.7 |
| 20260509180950 | 84 | 103 | 1.7 | 2.6 | 0.00 | 0.11 | 0.11 | 50 | 1010.9 |
| 20260509180445 | 85 | 257 | 3.5 | 6.1 | 0.00 | 0.11 | 0.11 | 50 | 1010.8 |
| 20260509175943 | 84 | 51 | 0.0 | 3.5 | 0.00 | 0.11 | 0.11 | 51 | 1010.9 |
| 20260509175439 | 84 | 343 | 3.5 | 3.5 | 0.00 | 0.11 | 0.11 | 49 | 1010.9 |
| 20260509174936 | 83 | 286 | 3.5 | 3.5 | 0.00 | 0.11 | 0.11 | 52 | 1010.8 |
| 20260509174432 | 83 | 286 | 3.5 | 5.2 | 0.00 | 0.11 | 0.11 | 52 | 1011.0 |
| 20260509173927 | 83 | 346 | 4.3 | 7.0 | 0.00 | 0.11 | 0.11 | 52 | 1011.0 |
| 20260509173427 | 83 | 289 | 0.9 | 2.6 | 0.00 | 0.11 | 0.11 | 53 | 1011.0 |
| 20260509172924 | 82 | 328 | 1.7 | 5.2 | 0.00 | 0.11 | 0.11 | 54 | 1011.1 |
| 20260509172421 | 82 | 322 | 3.5 | 4.3 | 0.00 | 0.11 | 0.11 | 53 | 1011.1 |
| 20260509171916 | 82 | 322 | 2.6 | 4.3 | 0.00 | 0.11 | 0.11 | 52 | 1011.3 |
| 20260509171413 | 82 | 305 | 2.6 | 5.2 | 0.00 | 0.11 | 0.11 | 52 | 1011.3 |
| 20260509170909 | 81 | 299 | 0.0 | 2.6 | 0.00 | 0.11 | 0.11 | 56 | 1011.3 |
| 20260509170404 | 82 | 269 | 3.5 | 4.3 | 0.00 | 0.11 | 0.11 | 56 | 1011.3 |
| 20260509165901 | 81 | 305 | 4.3 | 5.2 | 0.00 | 0.11 | 0.11 | 54 | 1011.3 |
| 20260509165355 | 81 | 350 | 1.7 | 5.2 | 0.00 | 0.11 | 0.11 | 55 | 1011.4 |
| 20260509164851 | 81 | 307 | 1.7 | 5.2 | 0.00 | 0.11 | 0.11 | 54 | 1011.3 |
| 20260509164347 | 81 | 294 | 3.5 | 5.2 | 0.00 | 0.11 | 0.11 | 56 | 1011.5 |
| 20260509163843 | 80 | 348 | 0.9 | 3.5 | 0.00 | 0.11 | 0.11 | 58 | 1011.5 |
| 20260509163340 | 79 | 340 | 2.6 | 5.2 | 0.00 | 0.11 | 0.11 | 57 | 1011.5 |
| 20260509162839 | 79 | 275 | 4.3 | 8.7 | 0.00 | 0.11 | 0.11 | 58 | 1011.6 |
| 20260509162338 | 79 | 287 | 6.1 | 8.7 | 0.00 | 0.11 | 0.11 | 57 | 1011.7 |
| 20260509161834 | 78 | 293 | 4.3 | 7.8 | 0.00 | 0.11 | 0.11 | 60 | 1011.7 |
| 20260509161331 | 78 | 269 | 1.7 | 6.1 | 0.00 | 0.11 | 0.11 | 59 | 1011.3 |
| 20260509160826 | 78 | 273 | 1.7 | 5.2 | 0.00 | 0.11 | 0.11 | 59 | 1011.6 |
| 20260509160322 | 78 | 256 | 4.3 | 8.7 | 0.00 | 0.11 | 0.11 | 62 | 1011.5 |
| 20260509155818 | 78 | 252 | 5.2 | 7.0 | 0.00 | 0.11 | 0.11 | 63 | 1011.6 |
| 20260509155315 | 77 | 329 | 2.6 | 7.8 | 0.00 | 0.11 | 0.11 | 63 | 1011.5 |
| 20260509154811 | 77 | 341 | 3.5 | 5.2 | 0.00 | 0.11 | 0.11 | 62 | 1011.4 |
| 20260509154308 | 77 | 308 | 2.6 | 7.0 | 0.00 | 0.11 | 0.11 | 62 | 1011.5 |
| 20260509153804 | 76 | 304 | 1.7 | 6.1 | 0.00 | 0.11 | 0.11 | 64 | 1011.5 |
| 20260509153301 | 75 | 355 | 4.3 | 6.1 | 0.00 | 0.11 | 0.11 | 62 | 1011.3 |
| 20260509152758 | 75 | 292 | 4.3 | 6.1 | 0.00 | 0.11 | 0.11 | 61 | 1011.3 |
| 20260509152253 | 75 | 280 | 4.3 | 5.2 | 0.00 | 0.11 | 0.11 | 64 | 1011.5 |
| 20260509151751 | 75 | 331 | 1.7 | 5.2 | 0.00 | 0.11 | 0.11 | 64 | 1011.6 |
| 20260509151247 | 74 | 230 | 4.3 | 5.2 | 0.00 | 0.11 | 0.11 | 64 | 1011.6 |
| 20260509150746 | 74 | 330 | 3.5 | 4.3 | 0.00 | 0.11 | 0.11 | 65 | 1011.6 |
| 20260509150244 | 74 | 328 | 1.7 | 4.3 | 0.00 | 0.11 | 0.11 | 66 | 1011.6 |
| 20260509145740 | 74 | 274 | 2.6 | 5.2 | 0.00 | 0.11 | 0.11 | 67 | 1011.5 |
| 20260509145240 | 73 | 18 | 2.6 | 4.3 | 0.00 | 0.11 | 0.11 | 69 | 1011.5 |
| 20260509144737 | 73 | 341 | 1.7 | 3.5 | 0.00 | 0.11 | 0.11 | 70 | 1011.7 |
| 20260509144234 | 74 | 298 | 3.5 | 6.1 | 0.00 | 0.11 | 0.11 | 68 | 1011.6 |
| 20260509143731 | 74 | 7 | 0.9 | 3.5 | 0.00 | 0.11 | 0.11 | 68 | 1011.6 |
| 20260509143228 | 74 | 345 | 2.6 | 4.3 | 0.00 | 0.11 | 0.11 | 72 | 1011.6 |
| 20260509142724 | 72 | 312 | 2.6 | 3.5 | 0.00 | 0.11 | 0.11 | 76 | 1011.7 |
| 20260509142221 | 72 | 343 | 4.3 | 5.2 | 0.00 | 0.11 | 0.11 | 78 | 1011.5 |
| 20260509141716 | 72 | 341 | 3.5 | 3.5 | 0.00 | 0.11 | 0.11 | 78 | 1011.7 |
| 20260509141214 | 72 | 29 | 4.3 | 4.3 | 0.00 | 0.11 | 0.11 | 79 | 1011.6 |
| 20260509140710 | 72 | 13 | 1.7 | 4.3 | 0.00 | 0.11 | 0.11 | 78 | 1011.8 |
| 20260509140208 | 71 | 92 | 1.7 | 3.5 | 0.00 | 0.11 | 0.11 | 80 | 1011.7 |
| 20260509135705 | 71 | 7 | 3.5 | 5.2 | 0.00 | 0.11 | 0.11 | 80 | 1011.7 |
| 20260509135203 | 71 | 98 | 1.7 | 3.5 | 0.00 | 0.11 | 0.11 | 80 | 1011.7 |
| 20260509134659 | 72 | 53 | 1.7 | 3.5 | 0.00 | 0.11 | 0.11 | 78 | 1011.7 |
| 20260509134157 | 70 | 35 | 1.7 | 3.5 | 0.00 | 0.11 | 0.11 | 79 | 1011.9 |
| 20260509133654 | 69 | 92 | 1.7 | 2.6 | 0.00 | 0.11 | 0.11 | 82 | 1011.9 |
| 20260509133151 | 69 | 98 | 2.6 | 3.5 | 0.00 | 0.11 | 0.11 | 81 | 1011.9 |
| 20260509132649 | 69 | 64 | 0.9 | 2.6 | 0.00 | 0.11 | 0.11 | 79 | 1011.8 |
| 20260509132147 | 69 | 75 | 0.9 | 2.6 | 0.00 | 0.11 | 0.11 | 80 | 1011.8 |
| 20260509131643 | 69 | 79 | 1.7 | 2.6 | 0.00 | 0.11 | 0.11 | 80 | 1011.8 |
| 20260509131140 | 68 | 49 | 1.7 | 1.7 | 0.00 | 0.11 | 0.11 | 82 | 1011.7 |
| 20260509130636 | 67 | 50 | 1.7 | 2.6 | 0.00 | 0.11 | 0.11 | 83 | 1011.8 |
| 20260509130132 | 67 | 98 | 0.9 | 2.6 | 0.00 | 0.11 | 0.11 | 83 | 1011.8 |
| 20260509125629 | 66 | 38 | 3.5 | 4.3 | 0.00 | 0.11 | 0.11 | 82 | 1011.7 |
| 20260509125126 | 65 | 59 | 0.0 | 1.7 | 0.00 | 0.11 | 0.11 | 86 | 1011.6 |
| 20260509124622 | 64 | 31 | 0.0 | 1.7 | 0.00 | 0.11 | 0.11 | 87 | 1011.5 |
| 20260509124119 | 64 | 57 | 1.7 | 1.7 | 0.00 | 0.11 | 0.11 | 87 | 1011.7 |
| 20260509123617 | 63 | 125 | 1.7 | 1.7 | 0.00 | 0.11 | 0.11 | 89 | 1011.9 |
| 20260509123114 | 63 | 118 | 0.0 | 1.7 | 0.00 | 0.11 | 0.11 | 89 | 1011.7 |
| 20260509122610 | 62 | 95 | 0.9 | 1.7 | 0.00 | 0.11 | 0.11 | 89 | 1011.6 |
| 20260509122107 | 62 | 147 | 0.9 | 1.7 | 0.00 | 0.11 | 0.11 | 89 | 1011.7 |
| 20260509121603 | 62 | 203 | 0.0 | 0.0 | 0.00 | 0.11 | 0.11 | 87 | 1011.4 |
| 20260509121101 | 63 | 137 | 0.0 | 1.7 | 0.00 | 0.11 | 0.11 | 86 | 1011.4 |
| 20260509120559 | 63 | 153 | 2.6 | 3.5 | 0.00 | 0.11 | 0.11 | 87 | 1011.1 |
| 20260509120057 | 63 | 150 | 2.6 | 2.6 | 0.00 | 0.11 | 0.11 | 87 | 1011.0 |
| 20260509115554 | 63 | 162 | 1.7 | 2.6 | 0.00 | 0.11 | 0.11 | 88 | 1010.8 |
| 20260509115052 | 63 | 143 | 0.0 | 1.7 | 0.00 | 0.11 | 0.11 | 87 | 1011.0 |
| 20260509114550 | 63 | 186 | 1.7 | 1.7 | 0.00 | 0.11 | 0.11 | 87 | 1010.8 |
| 20260509114048 | 63 | 191 | 0.0 | 0.9 | 0.00 | 0.11 | 0.11 | 87 | 1010.7 |
| 20260509113546 | 63 | 199 | 0.0 | 1.7 | 0.00 | 0.11 | 0.11 | 87 | 1010.4 |
| 20260509113044 | 63 | 177 | 1.7 | 1.7 | 0.00 | 0.11 | 0.11 | 86 | 1010.3 |
| 20260509112540 | 63 | 230 | 0.0 | 1.7 | 0.00 | 0.11 | 0.11 | 86 | 1010.2 |
| 20260509112037 | 63 | 150 | 0.0 | 1.7 | 0.00 | 0.11 | 0.11 | 85 | 1010.0 |
| 20260509111534 | 63 | 6 | 1.7 | 1.7 | 0.00 | 0.11 | 0.11 | 85 | 1010.0 |
| 20260509111031 | 63 | 10 | 0.9 | 2.6 | 0.00 | 0.11 | 0.11 | 85 | 1009.8 |
| 20260509110527 | 63 | 240 | 0.0 | 1.7 | 0.00 | 0.11 | 0.11 | 84 | 1010.0 |
| 20260509110025 | 64 | 20 | 2.6 | 4.3 | 0.00 | 0.11 | 0.11 | 84 | 1009.7 |
| 20260509105523 | 63 | 40 | 1.7 | 2.6 | 0.00 | 0.11 | 0.11 | 86 | 1009.8 |
| 20260509105020 | 62 | 67 | 1.7 | 2.6 | 0.00 | 0.11 | 0.11 | 88 | 1009.8 |
| 20260509104517 | 63 | 166 | 1.7 | 1.7 | 0.00 | 0.11 | 0.11 | 86 | 1009.9 |
| 20260509104014 | 64 | 122 | 1.7 | 1.7 | 0.00 | 0.11 | 0.11 | 84 | 1009.8 |
| 20260509103512 | 63 | 92 | 3.5 | 3.5 | 0.00 | 0.11 | 0.11 | 85 | 1009.8 |
| 20260509103010 | 63 | 91 | 2.6 | 3.5 | 0.00 | 0.11 | 0.11 | 87 | 1010.0 |
| 20260509102507 | 63 | 35 | 0.0 | 0.9 | 0.00 | 0.11 | 0.11 | 85 | 1010.2 |
| 20260509102003 | 63 | 89 | 2.6 | 4.3 | 0.00 | 0.11 | 0.11 | 85 | 1010.1 |
| 20260509101500 | 63 | 95 | 3.5 | 4.3 | 0.00 | 0.11 | 0.11 | 87 | 1010.0 |
| 20260509100957 | 63 | 214 | 0.0 | 1.7 | 0.00 | 0.11 | 0.11 | 87 | 1010.3 |
| 20260509100454 | 63 | 110 | 0.9 | 1.7 | 0.00 | 0.11 | 0.11 | 87 | 1010.3 |
| 20260509095951 | 63 | 102 | 2.6 | 5.2 | 0.00 | 0.11 | 0.11 | 86 | 1010.4 |
| 20260509095448 | 63 | 93 | 1.7 | 3.5 | 0.00 | 0.11 | 0.11 | 86 | 1010.3 |
| 20260509094945 | 63 | 92 | 2.6 | 4.3 | 0.00 | 0.11 | 0.11 | 85 | 1010.4 |
| 20260509094441 | 64 | 92 | 1.7 | 1.7 | 0.00 | 0.11 | 0.11 | 84 | 1010.4 |
| 20260509093939 | 64 | 60 | 1.7 | 1.7 | 0.00 | 0.11 | 0.11 | 84 | 1010.4 |
| 20260509093436 | 64 | 310 | 0.9 | 5.2 | 0.00 | 0.11 | 0.11 | 83 | 1010.3 |
| 20260509092934 | 64 | 301 | 3.5 | 7.0 | 0.00 | 0.11 | 0.11 | 83 | 1010.5 |
| 20260509092432 | 65 | 254 | 4.3 | 7.8 | 0.00 | 0.11 | 0.11 | 82 | 1009.8 |
| 20260509091931 | 65 | 256 | 9.6 | 13.9 | 0.00 | 0.11 | 0.11 | 80 | 1010.1 |
| 20260509091427 | 65 | 268 | 4.3 | 11.3 | 0.00 | 0.11 | 0.11 | 81 | 1009.6 |
| 20260509090924 | 65 | 19 | 1.7 | 9.6 | 0.00 | 0.11 | 0.11 | 79 | 1009.3 |
| 20260509090421 | 64 | 337 | 3.5 | 9.6 | 0.00 | 0.11 | 0.11 | 81 | 1007.9 |
| 20260509085919 | 64 | 191 | 3.5 | 9.6 | 0.00 | 0.11 | 0.11 | 82 | 1006.7 |
| 20260509085416 | 64 | 197 | 2.6 | 5.2 | 0.00 | 0.11 | 0.11 | 80 | 1006.1 |
| 20260509084912 | 64 | 156 | 3.5 | 7.0 | 0.00 | 0.11 | 0.11 | 78 | 1006.0 |
| 20260509084409 | 64 | 136 | 3.5 | 8.7 | 0.00 | 0.11 | 0.11 | 78 | 1006.2 |
| 20260509083906 | 64 | 157 | 3.5 | 7.8 | 0.00 | 0.11 | 0.11 | 78 | 1006.7 |
| 20260509083403 | 64 | 154 | 5.2 | 7.0 | 0.00 | 0.11 | 0.11 | 78 | 1006.5 |
| 20260509082900 | 64 | 119 | 0.9 | 4.3 | 0.00 | 0.11 | 0.11 | 76 | 1007.0 |
| 20260509082357 | 65 | 204 | 2.6 | 6.1 | 0.00 | 0.11 | 0.11 | 76 | 1007.8 |
| 20260509081854 | 66 | 77 | 1.7 | 3.5 | 0.00 | 0.11 | 0.11 | 73 | 1008.6 |
| 20260509081351 | 67 | 130 | 3.5 | 5.2 | 0.00 | 0.11 | 0.11 | 71 | 1008.6 |
| 20260509080849 | 69 | 260 | 2.6 | 8.7 | 0.00 | 0.11 | 0.11 | 66 | 1009.0 |
| 20260509080347 | 68 | 303 | 5.2 | 6.1 | 0.00 | 0.11 | 0.11 | 62 | 1008.9 |
| 20260509075844 | 66 | 355 | 0.9 | 2.6 | 0.00 | 0.11 | 0.11 | 76 | 1008.9 |
| 20260509075341 | 67 | 265 | 5.2 | 5.2 | 0.00 | 0.11 | 0.11 | 75 | 1008.8 |
| 20260509074838 | 66 | 93 | 1.7 | 2.6 | 0.00 | 0.11 | 0.11 | 73 | 1008.9 |
| 20260509074336 | 65 | 108 | 3.5 | 3.5 | 0.00 | 0.11 | 0.11 | 78 | 1008.7 |
| 20260509073832 | 67 | 275 | 3.5 | 5.2 | 0.00 | 0.11 | 0.11 | 79 | 1009.1 |
| 20260509073329 | 64 | 108 | 0.0 | 3.5 | 0.00 | 0.11 | 0.11 | 88 | 1009.3 |
| 20260509072825 | 65 | 214 | 1.7 | 1.7 | 0.00 | 0.11 | 0.11 | 83 | 1009.3 |
| 20260509072322 | 66 | 106 | 3.5 | 6.1 | 0.00 | 0.11 | 0.11 | 79 | 1009.6 |
| 20260509071819 | 65 | 99 | 2.6 | 4.3 | 0.00 | 0.11 | 0.11 | 81 | 1009.7 |
| 20260509071316 | 68 | 267 | 2.6 | 2.6 | 0.00 | 0.11 | 0.11 | 74 | 1010.2 |
| 20260509070813 | 69 | 123 | 5.2 | 7.0 | 0.00 | 0.11 | 0.11 | 65 | 1010.5 |
| 20260509070309 | 66 | 115 | 3.5 | 4.3 | 0.00 | 0.11 | 0.11 | 74 | 1010.8 |
| 20260509065806 | 64 | 128 | 1.7 | 2.6 | 0.02 | 0.11 | 0.11 | 80 | 1011.7 |
| 20260509065305 | 64 | 83 | 0.9 | 2.6 | 0.07 | 0.11 | 0.11 | 81 | 1012.0 |
| 20260509064758 | 63 | 112 | 0.9 | 1.7 | 0.17 | 0.11 | 0.11 | 84 | 1012.2 |
| 20260509064256 | 63 | 234 | 0.9 | 3.5 | 0.17 | 0.09 | 0.09 | 85 | 1012.4 |
| 20260509063753 | 63 | 105 | 1.7 | 2.6 | 0.17 | 0.08 | 0.08 | 85 | 1012.8 |
| 20260509063249 | 64 | 298 | 3.5 | 7.8 | 0.40 | 0.07 | 0.07 | 82 | 1013.3 |
| 20260509062747 | 66 | 322 | 7.0 | 12.2 | 0.26 | 0.04 | 0.04 | 79 | 1013.4 |
| 20260509062244 | 69 | 328 | 10.4 | 15.6 | 0.00 | 0.00 | 0.00 | 81 | 1013.3 |
| 20260509061740 | 69 | 317 | 6.1 | 11.3 | 0.00 | 0.00 | 0.00 | 87 | 1013.3 |
| 20260509061239 | 68 | 292 | 6.1 | 11.3 | 0.00 | 0.00 | 0.00 | 92 | 1013.2 |
| 20260509060736 | 68 | 314 | 2.6 | 5.2 | 0.00 | 0.00 | 0.00 | 94 | 1013.1 |
| 20260509060232 | 68 | 357 | 1.7 | 4.3 | 0.00 | 0.00 | 0.00 | 94 | 1012.9 |
| 20260509055727 | 68 | 340 | 1.7 | 3.5 | 0.00 | 0.00 | 0.00 | 94 | 1012.5 |
| 20260509055224 | 68 | 340 | 3.5 | 3.5 | 0.00 | 0.00 | 0.00 | 94 | 1012.3 |
| 20260509054720 | 68 | 243 | 0.0 | 3.5 | 0.00 | 0.00 | 0.00 | 94 | 1012.0 |
| 20260509054218 | 68 | 75 | 1.7 | 1.7 | 0.00 | 0.00 | 0.00 | 94 | 1012.0 |
| 20260509053716 | 68 | 47 | 2.6 | 3.5 | 0.00 | 0.00 | 0.00 | 95 | 1012.4 |
| 20260509053212 | 68 | 42 | 3.5 | 7.0 | 0.00 | 0.00 | 0.00 | 95 | 1012.4 |
| 20260509052710 | 67 | 47 | 1.7 | 3.5 | 0.00 | 0.00 | 0.00 | 95 | 1012.1 |
| 20260509052208 | 67 | 38 | 3.5 | 5.2 | 0.00 | 0.00 | 0.00 | 94 | 1012.1 |
| 20260509051705 | 67 | 60 | 3.5 | 3.5 | 0.00 | 0.00 | 0.00 | 94 | 1011.7 |
| 20260509051203 | 67 | 52 | 2.6 | 4.3 | 0.00 | 0.00 | 0.00 | 94 | 1011.8 |
| 20260509050700 | 67 | 72 | 1.7 | 5.2 | 0.00 | 0.00 | 0.00 | 94 | 1011.7 |
| 20260509050156 | 67 | 76 | 1.7 | 1.7 | 0.00 | 0.00 | 0.00 | 94 | 1011.1 |
| 20260509045654 | 68 | 120 | 3.5 | 4.3 | 0.00 | 0.11 | 0.11 | 94 | 1010.8 |
| 20260509045150 | 67 | 138 | 3.5 | 4.3 | 0.00 | 0.11 | 0.11 | 93 | 1010.7 |
| 20260509044647 | 68 | 137 | 2.6 | 3.5 | 0.00 | 0.11 | 0.11 | 93 | 1010.6 |
| 20260509044145 | 68 | 113 | 3.5 | 3.5 | 0.00 | 0.11 | 0.11 | 93 | 1010.4 |
| 20260509043641 | 68 | 119 | 2.6 | 3.5 | 0.00 | 0.11 | 0.11 | 92 | 1010.8 |
| 20260509043137 | 68 | 101 | 2.6 | 3.5 | 0.00 | 0.11 | 0.11 | 92 | 1010.7 |
| 20260509042634 | 68 | 96 | 2.6 | 3.5 | 0.00 | 0.11 | 0.11 | 92 | 1010.7 |
| 20260509042129 | 68 | 124 | 1.7 | 4.3 | 0.00 | 0.11 | 0.11 | 92 | 1010.7 |
| 20260509041626 | 68 | 115 | 4.3 | 5.2 | 0.00 | 0.11 | 0.11 | 91 | 1010.2 |
| 20260509041124 | 69 | 105 | 2.6 | 4.3 | 0.00 | 0.11 | 0.11 | 90 | 1010.4 |
| 20260509040622 | 69 | 83 | 4.3 | 6.1 | 0.00 | 0.11 | 0.11 | 90 | 1010.7 |
| 20260509040119 | 69 | 107 | 1.7 | 4.3 | 0.00 | 0.11 | 0.11 | 90 | 1010.2 |
| 20260509035615 | 69 | 134 | 5.2 | 5.2 | 0.00 | 0.11 | 0.11 | 90 | 1010.3 |
| 20260509035112 | 69 | 116 | 4.3 | 6.1 | 0.00 | 0.11 | 0.11 | 89 | 1009.9 |
| 20260509034610 | 69 | 142 | 3.5 | 5.2 | 0.00 | 0.11 | 0.11 | 89 | 1009.8 |
| 20260509034107 | 69 | 148 | 1.7 | 4.3 | 0.00 | 0.11 | 0.11 | 89 | 1009.6 |
| 20260509033604 | 69 | 123 | 3.5 | 5.2 | 0.00 | 0.11 | 0.11 | 89 | 1009.7 |
| 20260509033101 | 69 | 122 | 3.5 | 6.1 | 0.00 | 0.11 | 0.11 | 88 | 1009.7 |
| 20260509032558 | 70 | 151 | 3.5 | 7.0 | 0.00 | 0.11 | 0.11 | 88 | 1009.5 |
| 20260509032055 | 70 | 133 | 2.6 | 5.2 | 0.00 | 0.11 | 0.11 | 88 | 1009.6 |
| 20260509031553 | 70 | 120 | 1.7 | 5.2 | 0.00 | 0.11 | 0.11 | 88 | 1009.5 |
| 20260509031050 | 70 | 106 | 3.5 | 6.1 | 0.00 | 0.11 | 0.11 | 87 | 1009.3 |
| 20260509030548 | 70 | 129 | 5.2 | 9.6 | 0.00 | 0.11 | 0.11 | 87 | 1009.2 |
| 20260509030045 | 70 | 169 | 2.6 | 5.2 | 0.00 | 0.11 | 0.11 | 87 | 1008.9 |
| 20260509025541 | 70 | 159 | 2.6 | 7.8 | 0.00 | 0.11 | 0.11 | 87 | 1008.9 |
| 20260509025036 | 70 | 123 | 5.2 | 7.8 | 0.00 | 0.11 | 0.11 | 87 | 1008.7 |
| 20260509024532 | 70 | 132 | 7.0 | 7.8 | 0.00 | 0.11 | 0.11 | 87 | 1008.6 |
| 20260509024029 | 70 | 101 | 3.5 | 5.2 | 0.00 | 0.11 | 0.11 | 86 | 1008.3 |
| 20260509023527 | 70 | 139 | 3.5 | 8.7 | 0.00 | 0.11 | 0.11 | 86 | 1008.4 |
| 20260509023023 | 70 | 132 | 2.6 | 7.0 | 0.00 | 0.11 | 0.11 | 86 | 1008.6 |
| 20260509022520 | 70 | 120 | 7.8 | 7.8 | 0.00 | 0.11 | 0.11 | 86 | 1008.6 |
| 20260509022018 | 70 | 106 | 1.7 | 5.2 | 0.00 | 0.11 | 0.11 | 86 | 1008.3 |
| 20260509021514 | 70 | 150 | 4.3 | 7.0 | 0.00 | 0.11 | 0.11 | 86 | 1008.5 |
| 20260509021011 | 70 | 131 | 5.2 | 7.0 | 0.00 | 0.11 | 0.11 | 86 | 1008.3 |
| 20260509020510 | 70 | 116 | 2.6 | 5.2 | 0.00 | 0.11 | 0.11 | 86 | 1008.4 |
| 20260509020006 | 70 | 110 | 2.6 | 5.2 | 0.00 | 0.11 | 0.11 | 85 | 1008.6 |
| 20260509015505 | 70 | 136 | 6.1 | 7.8 | 0.00 | 0.11 | 0.11 | 85 | 1008.4 |
| 20260509015002 | 70 | 134 | 3.5 | 5.2 | 0.00 | 0.11 | 0.11 | 85 | 1008.6 |
| 20260509014459 | 70 | 145 | 4.3 | 6.1 | 0.00 | 0.11 | 0.11 | 84 | 1008.5 |
| 20260509013954 | 70 | 118 | 3.5 | 5.2 | 0.00 | 0.11 | 0.11 | 84 | 1008.5 |
| 20260509013452 | 70 | 139 | 4.3 | 5.2 | 0.00 | 0.11 | 0.11 | 83 | 1008.5 |
| 20260509012947 | 71 | 114 | 3.5 | 5.2 | 0.00 | 0.11 | 0.11 | 83 | 1008.6 |
| 20260509012444 | 71 | 128 | 4.3 | 5.2 | 0.00 | 0.11 | 0.11 | 82 | 1008.5 |
| 20260509011941 | 71 | 129 | 4.3 | 5.2 | 0.00 | 0.11 | 0.11 | 82 | 1008.5 |
| 20260509011439 | 71 | 149 | 1.7 | 6.1 | 0.00 | 0.11 | 0.11 | 81 | 1008.6 |
| 20260509010936 | 71 | 114 | 3.5 | 5.2 | 0.00 | 0.11 | 0.11 | 81 | 1008.4 |
| 20260509010434 | 72 | 121 | 5.2 | 5.2 | 0.00 | 0.11 | 0.11 | 80 | 1008.5 |
| 20260509005931 | 72 | 131 | 3.5 | 5.2 | 0.00 | 0.11 | 0.11 | 80 | 1008.3 |
| 20260509005429 | 72 | 133 | 5.2 | 5.2 | 0.00 | 0.11 | 0.11 | 79 | 1008.3 |
| 20260509004928 | 72 | 141 | 3.5 | 8.7 | 0.00 | 0.11 | 0.11 | 79 | 1008.1 |
| 20260509004425 | 72 | 114 | 5.2 | 6.1 | 0.00 | 0.11 | 0.11 | 78 | 1008.3 |
| 20260509003923 | 72 | 117 | 3.5 | 5.2 | 0.00 | 0.11 | 0.11 | 78 | 1008.0 |
| 20260509003421 | 72 | 127 | 4.3 | 5.2 | 0.00 | 0.11 | 0.11 | 78 | 1007.9 |
| 20260509002917 | 73 | 85 | 2.6 | 5.2 | 0.00 | 0.11 | 0.11 | 77 | 1007.9 |
| 20260509002416 | 73 | 168 | 2.6 | 7.0 | 0.00 | 0.11 | 0.11 | 77 | 1007.9 |
| 20260509001912 | 73 | 136 | 3.5 | 5.2 | 0.00 | 0.11 | 0.11 | 77 | 1008.1 |
| 20260509001408 | 73 | 127 | 3.5 | 7.8 | 0.00 | 0.11 | 0.11 | 76 | 1008.3 |
| 20260509000906 | 73 | 154 | 3.5 | 6.1 | 0.00 | 0.11 | 0.11 | 76 | 1008.1 |
| 20260509000404 | 73 | 160 | 5.2 | 7.8 | 0.00 | 0.11 | 0.11 | 75 | 1008.5 |
| 20260508235859 | 74 | 199 | 1.7 | 5.2 | 0.00 | 0.11 | 0.11 | 75 | 1008.5 |
| 20260508235357 | 74 | 97 | 3.5 | 7.8 | 0.00 | 0.11 | 0.11 | 74 | 1008.6 |
| 20260508234854 | 74 | 159 | 1.7 | 3.5 | 0.00 | 0.11 | 0.11 | 74 | 1008.5 |